Time,TemperatureF,DewpointF,PressureIn,WindDirection,WindDirectionDegrees,WindSpeedMPH,WindSpeedGustMPH,Humidity,HourlyPrecipIn,Conditions,Clouds,dailyrainin,SoftwareType,DateUTC
2013-08-19 00:01:00,60.0,60.0,30.15,ENE,68,0.0,0.0,100,0.00,RA,,0.00,WeatherDisplay:10.37,2013-08-19 04:01:00,
2013-08-19 00:06:00,59.9,59.9,30.15,ENE,68,0.0,0.0,100,0.00,RA,,0.00,WeatherDisplay:10.37,2013-08-19 04:06:00,
2013-08-19 00:11:00,59.9,59.9,30.15,North,7,4.6,4.6,100,0.00,CLR,,0.00,WeatherDisplay:10.37,2013-08-19 04:11:00,
2013-08-19 00:16:00,60.0,60.0,30.15,North,359,4.4,4.4,100,0.00,CLR,,0.00,WeatherDisplay:10.37,2013-08-19 04:16:00,
2013-08-19 00:21:00,60.1,60.1,30.15,North,3,0.0,0.0,100,0.00,CLR,,0.00,WeatherDisplay:10.37,2013-08-19 04:21:00,
2013-08-19 00:26:00,60.2,60.2,30.15,NNW,340,1.1,1.1,100,0.00,CLR,,0.00,WeatherDisplay:10.37,2013-08-19 04:26:00,
2013-08-19 00:31:00,60.4,60.4,30.15,NE,37,2.3,2.3,100,0.00,CLR,,0.00,WeatherDisplay:10.37,2013-08-19 04:31:00,
2013-08-19 00:36:00,60.4,60.4,30.15,ENE,62,2.3,2.3,100,0.00,CLR,,0.00,WeatherDisplay:10.37,2013-08-19 04:36:00,
2013-08-19 00:41:00,60.3,60.3,30.16,North,4,4.6,4.6,100,0.00,CLR,,0.00,WeatherDisplay:10.37,2013-08-19 04:41:00,
2013-08-19 00:46:00,60.1,60.1,30.15,NNE,28,3.5,3.5,100,0.00,CLR,,0.00,WeatherDisplay:10.37,2013-08-19 04:46:00,
2013-08-19 00:51:00,60.1,60.1,30.15,North,8,1.1,0.0,100,0.00,CLR,,0.00,WeatherDisplay:10.37,2013-08-19 04:51:00,
2013-08-19 00:56:00,60.1,60.1,30.15,NNE,18,1.1,1.1,100,0.00,CLR,,0.00,WeatherDisplay:10.37,2013-08-19 04:56:00,
2013-08-19 01:01:00,60.1,60.1,30.14,NNE,17,1.1,0.0,100,0.00,CLR,,0.00,WeatherDisplay:10.37,2013-08-19 05:01:00,
2013-08-19 01:06:00,59.9,59.9,30.14,ENE,59,2.3,2.3,100,0.00,CLR,,0.00,WeatherDisplay:10.37,2013-08-19 05:06:00,
2013-08-19 01:11:00,60.0,60.0,30.14,NNW,344,3.5,3.5,100,0.00,CLR,,0.00,WeatherDisplay:10.37,2013-08-19 05:11:00,
2013-08-19 01:16:00,60.0,60.0,30.14,North,7,0.0,0.0,100,0.00,CLR,,0.00,WeatherDisplay:10.37,2013-08-19 05:16:00,
2013-08-19 01:21:00,59.9,59.9,30.14,North,7,0.0,0.0,100,0.00,CLR,,0.00,WeatherDisplay:10.37,2013-08-19 05:21:00,
2013-08-19 01:26:00,59.8,59.8,30.14,North,10,3.2,3.2,100,0.00,CLR,,0.00,WeatherDisplay:10.37,2013-08-19 05:26:00,
2013-08-19 01:31:00,59.8,59.8,30.14,NNE,24,0.0,0.0,100,0.00,CLR,,0.00,WeatherDisplay:10.37,2013-08-19 05:31:00,
2013-08-19 01:36:00,59.7,59.7,30.14,NNE,24,0.0,0.0,100,0.00,CLR,,0.00,WeatherDisplay:10.37,2013-08-19 05:36:00,
2013-08-19 01:41:00,59.6,59.6,30.14,NNE,24,0.0,0.0,100,0.00,CLR,,0.00,WeatherDisplay:10.37,2013-08-19 05:41:00,
2013-08-19 01:46:00,59.5,59.5,30.14,NE,40,0.0,0.2,100,0.00,CLR,,0.00,WeatherDisplay:10.37,2013-08-19 05:46:00,
2013-08-19 01:51:00,59.7,59.7,30.14,NE,40,0.0,0.0,100,0.00,CLR,,0.00,WeatherDisplay:10.37,2013-08-19 05:51:00,
2013-08-19 01:56:00,59.7,59.7,30.13,NNE,27,3.5,3.5,100,0.00,CLR,,0.00,WeatherDisplay:10.37,2013-08-19 05:56:00,
2013-08-19 02:01:00,59.7,59.7,30.13,NNW,337,3.5,3.5,100,0.00,CLR,,0.00,WeatherDisplay:10.37,2013-08-19 06:01:00,
2013-08-19 02:06:00,59.7,59.7,30.14,NE,34,2.3,2.3,100,0.00,CLR,,0.00,WeatherDisplay:10.37,2013-08-19 06:06:00,
2013-08-19 02:11:00,59.6,59.6,30.14,NNE,16,3.5,3.5,100,0.00,CLR,,0.00,WeatherDisplay:10.37,2013-08-19 06:11:00,
2013-08-19 02:16:00,59.6,59.6,30.13,ENE,58,0.0,0.0,100,0.00,CLR,,0.00,WeatherDisplay:10.37,2013-08-19 06:16:00,
2013-08-19 02:21:00,59.6,59.6,30.13,NE,44,0.0,0.0,100,0.00,CLR,,0.00,WeatherDisplay:10.37,2013-08-19 06:21:00,
2013-08-19 02:26:00,59.5,59.5,30.13,NE,44,0.0,0.0,100,0.00,CLR,,0.00,WeatherDisplay:10.37,2013-08-19 06:26:00,
2013-08-19 02:31:00,59.5,59.5,30.13,NE,44,0.0,0.0,100,0.00,CLR,,0.00,WeatherDisplay:10.37,2013-08-19 06:31:00,
2013-08-19 02:36:00,59.3,59.3,30.13,NE,44,0.0,0.0,100,0.00,CLR,,0.00,WeatherDisplay:10.37,2013-08-19 06:36:00,
2013-08-19 02:41:00,59.3,59.3,30.13,NE,44,0.0,0.0,100,0.00,CLR,,0.00,WeatherDisplay:10.37,2013-08-19 06:41:00,
2013-08-19 02:46:00,59.2,59.2,30.13,NE,47,1.5,1.5,100,0.00,CLR,,0.00,WeatherDisplay:10.37,2013-08-19 06:46:00,
2013-08-19 02:51:00,59.3,59.3,30.13,North,10,0.0,0.0,100,0.00,CLR,,0.00,WeatherDisplay:10.37,2013-08-19 06:51:00,
2013-08-19 02:56:00,59.3,59.3,30.13,North,10,0.0,0.0,100,0.00,CLR,,0.00,WeatherDisplay:10.37,2013-08-19 06:56:00,
2013-08-19 03:01:00,59.3,59.3,30.13,North,10,0.0,0.0,100,0.00,CLR,,0.00,WeatherDisplay:10.37,2013-08-19 07:01:00,
2013-08-19 03:06:00,59.3,59.3,30.12,NE,45,1.1,1.1,100,0.00,CLR,,0.00,WeatherDisplay:10.37,2013-08-19 07:06:00,
2013-08-19 03:11:00,59.3,59.3,30.11,NNE,20,1.1,1.1,100,0.00,CLR,,0.00,WeatherDisplay:10.37,2013-08-19 07:11:00,
2013-08-19 03:16:00,59.3,59.3,30.12,NNE,20,0.0,0.0,100,0.00,CLR,,0.00,WeatherDisplay:10.37,2013-08-19 07:16:00,
2013-08-19 03:21:00,59.3,59.3,30.12,NE,34,0.0,0.0,100,0.00,CLR,,0.00,WeatherDisplay:10.37,2013-08-19 07:21:00,
2013-08-19 03:26:00,59.3,59.3,30.12,NE,34,0.0,0.0,100,0.00,CLR,,0.00,WeatherDisplay:10.37,2013-08-19 07:26:00,
2013-08-19 03:31:00,59.2,59.2,30.12,North,11,1.1,1.1,100,0.00,CLR,,0.00,WeatherDisplay:10.37,2013-08-19 07:31:00,
2013-08-19 03:36:00,59.2,59.2,30.12,ENE,64,0.0,0.0,100,0.00,CLR,,0.00,WeatherDisplay:10.37,2013-08-19 07:36:00,
2013-08-19 03:41:00,59.2,59.2,30.12,North,1,2.3,0.0,100,0.00,CLR,,0.00,WeatherDisplay:10.37,2013-08-19 07:41:00,
2013-08-19 03:46:00,59.3,59.3,30.11,North,1,0.0,0.0,100,0.00,CLR,,0.00,WeatherDisplay:10.37,2013-08-19 07:46:00,
2013-08-19 03:51:00,59.3,59.3,30.11,North,1,0.0,0.0,100,0.00,CLR,,0.00,WeatherDisplay:10.37,2013-08-19 07:51:00,
2013-08-19 03:56:00,59.3,59.3,30.11,North,1,0.0,0.0,100,0.00,CLR,,0.00,WeatherDisplay:10.37,2013-08-19 07:56:00,
2013-08-19 04:01:00,59.4,59.4,30.11,North,1,0.0,0.0,100,0.00,CLR,,0.00,WeatherDisplay:10.37,2013-08-19 08:01:00,
2013-08-19 04:06:00,59.4,59.4,30.11,North,1,0.0,0.0,100,0.00,CLR,,0.00,WeatherDisplay:10.37,2013-08-19 08:06:00,
2013-08-19 04:11:00,59.4,59.4,30.12,North,1,0.0,0.0,100,0.00,CLR,,0.00,WeatherDisplay:10.37,2013-08-19 08:11:00,
2013-08-19 04:16:00,59.3,59.3,30.12,North,1,0.0,0.0,100,0.00,CLR,,0.00,WeatherDisplay:10.37,2013-08-19 08:16:00,
2013-08-19 04:21:00,59.3,59.3,30.12,North,1,0.0,0.0,100,0.00,CLR,,0.00,WeatherDisplay:10.37,2013-08-19 08:21:00,
2013-08-19 04:26:00,59.3,59.3,30.11,North,1,0.0,0.0,100,0.00,CLR,,0.00,WeatherDisplay:10.37,2013-08-19 08:26:00,
2013-08-19 04:31:00,59.4,59.4,30.11,North,1,0.0,0.0,100,0.00,CLR,,0.00,WeatherDisplay:10.37,2013-08-19 08:31:00,
2013-08-19 04:36:00,59.4,59.4,30.11,North,1,0.0,0.0,100,0.00,CLR,,0.00,WeatherDisplay:10.37,2013-08-19 08:36:00,
2013-08-19 04:41:00,59.5,59.5,30.11,North,1,0.0,0.0,100,0.00,CLR,,0.00,WeatherDisplay:10.37,2013-08-19 08:41:00,
2013-08-19 04:46:00,59.4,59.4,30.11,North,1,0.0,0.0,100,0.00,CLR,,0.00,WeatherDisplay:10.37,2013-08-19 08:46:00,
2013-08-19 04:51:00,59.4,59.4,30.11,North,1,0.0,0.0,100,0.00,CLR,,0.00,WeatherDisplay:10.37,2013-08-19 08:51:00,
2013-08-19 04:56:00,59.5,59.5,30.11,North,1,0.0,0.0,100,0.00,CLR,,0.00,WeatherDisplay:10.37,2013-08-19 08:56:00,
2013-08-19 05:01:00,59.4,59.4,30.11,North,1,0.0,0.0,100,0.00,CLR,,0.00,WeatherDisplay:10.37,2013-08-19 09:01:00,
2013-08-19 05:06:00,59.4,59.4,30.11,North,1,0.0,0.0,100,0.00,CLR,,0.00,WeatherDisplay:10.37,2013-08-19 09:06:00,
2013-08-19 05:11:00,59.5,59.5,30.10,North,1,0.0,0.0,100,0.00,CLR,,0.00,WeatherDisplay:10.37,2013-08-19 09:11:00,
2013-08-19 05:16:00,59.5,59.5,30.10,North,1,0.0,0.0,100,0.00,CLR,,0.00,WeatherDisplay:10.37,2013-08-19 09:16:00,
2013-08-19 05:21:00,59.5,59.5,30.10,North,1,0.0,0.0,100,0.00,CLR,,0.00,WeatherDisplay:10.37,2013-08-19 09:21:00,
2013-08-19 05:26:00,59.4,59.4,30.10,North,1,0.0,0.0,100,0.00,CLR,,0.00,WeatherDisplay:10.37,2013-08-19 09:26:00,
2013-08-19 05:31:00,59.4,59.4,30.10,North,1,0.0,0.0,100,0.00,CLR,,0.00,WeatherDisplay:10.37,2013-08-19 09:31:00,
2013-08-19 05:36:00,59.5,59.5,30.10,North,1,0.0,0.0,100,0.00,CLR,,0.00,WeatherDisplay:10.37,2013-08-19 09:36:00,
2013-08-19 05:41:00,59.4,59.4,30.11,North,1,0.0,0.0,100,0.00,CLR,,0.00,WeatherDisplay:10.37,2013-08-19 09:41:00,
2013-08-19 05:46:00,59.5,59.5,30.11,North,1,0.0,0.0,100,0.00,CLR,,0.00,WeatherDisplay:10.37,2013-08-19 09:46:00,
2013-08-19 05:51:00,59.5,59.5,30.11,North,1,0.0,0.0,100,0.00,SCT,,0.00,WeatherDisplay:10.37,2013-08-19 09:51:00,
2013-08-19 05:56:00,59.5,59.5,30.11,North,1,0.0,0.0,100,0.00,SCT,,0.00,WeatherDisplay:10.37,2013-08-19 09:56:00,
2013-08-19 06:01:00,59.5,59.5,30.10,North,1,0.0,0.0,100,0.00,SCT,,0.00,WeatherDisplay:10.37,2013-08-19 10:01:00,
2013-08-19 06:06:00,59.6,59.6,30.11,North,1,0.0,0.0,100,0.00,SCT,,0.00,WeatherDisplay:10.37,2013-08-19 10:06:00,
2013-08-19 06:11:00,59.6,59.6,30.10,North,1,0.0,0.0,100,0.00,SCT,,0.00,WeatherDisplay:10.37,2013-08-19 10:11:00,
2013-08-19 06:16:00,59.5,59.5,30.10,North,1,0.0,0.0,100,0.00,SCT,,0.00,WeatherDisplay:10.37,2013-08-19 10:16:00,
2013-08-19 06:21:00,59.5,59.5,30.11,North,1,0.0,0.0,100,0.00,BKN,,0.00,WeatherDisplay:10.37,2013-08-19 10:21:00,
2013-08-19 06:26:00,59.5,59.5,30.11,North,1,0.0,0.0,100,0.00,BKN,,0.00,WeatherDisplay:10.37,2013-08-19 10:26:00,
2013-08-19 06:31:00,59.6,59.6,30.11,NNW,333,0.0,0.0,100,0.00,BKN,,0.00,WeatherDisplay:10.37,2013-08-19 10:31:00,
2013-08-19 06:36:00,59.7,59.7,30.11,NNW,333,0.0,0.0,100,0.00,BKN,,0.00,WeatherDisplay:10.37,2013-08-19 10:36:00,
2013-08-19 06:41:00,59.8,59.8,30.10,NNW,333,0.0,0.0,100,0.00,SCT,,0.00,WeatherDisplay:10.37,2013-08-19 10:41:00,
2013-08-19 06:46:00,59.8,59.8,30.10,NNW,333,0.0,0.0,100,0.00,SCT,,0.00,WeatherDisplay:10.37,2013-08-19 10:46:00,
2013-08-19 06:51:00,59.9,59.9,30.10,NNW,333,0.0,0.0,100,0.00,SCT,,0.00,WeatherDisplay:10.37,2013-08-19 10:51:00,
2013-08-19 06:56:00,60.0,60.0,30.10,NNW,333,0.0,0.0,100,0.00,SCT,,0.00,WeatherDisplay:10.37,2013-08-19 10:56:00,
2013-08-19 07:01:00,60.1,60.1,30.10,NNW,333,0.0,0.0,100,0.00,CLR,,0.00,WeatherDisplay:10.37,2013-08-19 11:01:00,
2013-08-19 07:06:00,60.2,60.2,30.11,NNW,333,0.0,0.0,100,0.00,CLR,,0.00,WeatherDisplay:10.37,2013-08-19 11:06:00,
2013-08-19 07:11:00,60.5,60.5,30.11,NNW,333,0.0,0.0,100,0.00,CLR,,0.00,WeatherDisplay:10.37,2013-08-19 11:11:00,
2013-08-19 07:16:00,60.5,60.5,30.11,NNW,333,0.0,0.0,100,0.00,CLR,,0.00,WeatherDisplay:10.37,2013-08-19 11:16:00,
2013-08-19 07:21:00,60.9,60.9,30.11,NW,308,1.1,0.0,100,0.00,CLR,,0.00,WeatherDisplay:10.37,2013-08-19 11:21:00,
2013-08-19 07:26:00,61.2,61.2,30.11,NW,308,0.0,0.0,100,0.00,CLR,,0.00,WeatherDisplay:10.37,2013-08-19 11:26:00,
2013-08-19 07:31:00,61.2,61.2,30.11,NW,308,0.0,0.0,100,0.00,CLR,,0.00,WeatherDisplay:10.37,2013-08-19 11:31:00,
2013-08-19 07:36:00,61.3,61.3,30.11,NW,308,0.0,0.0,100,0.00,CLR,,0.00,WeatherDisplay:10.37,2013-08-19 11:36:00,
2013-08-19 07:41:00,61.5,61.5,30.11,NW,308,0.0,0.0,100,0.00,CLR,,0.00,WeatherDisplay:10.37,2013-08-19 11:41:00,
2013-08-19 07:46:00,61.6,61.6,30.10,NW,308,0.0,0.0,100,0.00,CLR,,0.00,WeatherDisplay:10.37,2013-08-19 11:46:00,
2013-08-19 07:51:00,61.6,61.6,30.10,NW,308,0.0,0.0,100,0.00,CLR,,0.00,WeatherDisplay:10.37,2013-08-19 11:51:00,
2013-08-19 07:56:00,61.5,61.5,30.11,NW,308,0.0,0.0,100,0.00,CLR,,0.00,WeatherDisplay:10.37,2013-08-19 11:56:00,
2013-08-19 08:01:00,61.4,61.4,30.11,NW,308,0.0,0.0,100,0.00,CLR,,0.00,WeatherDisplay:10.37,2013-08-19 12:01:00,
2013-08-19 08:06:00,61.5,61.5,30.11,NW,308,0.0,0.0,100,0.00,CLR,,0.00,WeatherDisplay:10.37,2013-08-19 12:06:00,
2013-08-19 08:11:00,61.4,61.4,30.11,NW,308,0.0,0.0,100,0.00,CLR,,0.00,WeatherDisplay:10.37,2013-08-19 12:11:00,
2013-08-19 08:16:00,61.8,61.8,30.11,NW,308,0.0,0.0,100,0.00,CLR,,0.00,WeatherDisplay:10.37,2013-08-19 12:16:00,
2013-08-19 08:21:00,62.2,62.2,30.11,NE,45,0.0,0.0,100,0.00,CLR,,0.00,WeatherDisplay:10.37,2013-08-19 12:21:00,
2013-08-19 08:26:00,62.5,62.5,30.12,NE,45,0.0,0.0,100,0.00,CLR,,0.00,WeatherDisplay:10.37,2013-08-19 12:26:00,
2013-08-19 08:31:00,62.5,62.5,30.12,NE,45,0.0,0.0,100,0.00,CLR,,0.00,WeatherDisplay:10.37,2013-08-19 12:31:00,
2013-08-19 08:36:00,62.3,62.3,30.11,NE,45,0.0,0.0,100,0.00,CLR,,0.00,WeatherDisplay:10.37,2013-08-19 12:36:00,
2013-08-19 08:41:00,62.1,62.1,30.11,NE,45,0.0,0.0,100,0.00,CLR,,0.00,WeatherDisplay:10.37,2013-08-19 12:41:00,
2013-08-19 08:46:00,62.1,62.1,30.11,NE,45,0.0,0.0,100,0.00,CLR,,0.00,WeatherDisplay:10.37,2013-08-19 12:46:00,
2013-08-19 08:51:00,61.8,61.8,30.11,NE,45,0.0,0.0,100,0.00,CLR,,0.00,WeatherDisplay:10.37,2013-08-19 12:51:00,
2013-08-19 08:56:00,61.7,61.7,30.11,NE,45,0.0,0.0,100,0.00,CLR,,0.00,WeatherDisplay:10.37,2013-08-19 12:56:00,
2013-08-19 09:01:00,61.8,61.8,30.11,NE,45,0.0,0.0,100,0.00,OVC,,0.00,WeatherDisplay:10.37,2013-08-19 13:01:00,
2013-08-19 09:06:00,61.7,61.7,30.11,NE,45,0.0,0.0,100,0.00,OVC,,0.00,WeatherDisplay:10.37,2013-08-19 13:06:00,
2013-08-19 09:11:00,62.3,62.3,30.11,NE,45,0.0,0.0,100,0.00,OVC,,0.00,WeatherDisplay:10.37,2013-08-19 13:11:00,
2013-08-19 09:16:00,62.7,62.7,30.11,NE,45,0.0,0.0,100,0.00,OVC,,0.00,WeatherDisplay:10.37,2013-08-19 13:16:00,
2013-08-19 09:21:00,63.1,63.1,30.11,NE,45,0.0,0.0,100,0.00,OVC,,0.00,WeatherDisplay:10.37,2013-08-19 13:21:00,
2013-08-19 09:26:00,63.4,63.4,30.11,NE,45,0.0,0.0,100,0.00,OVC,,0.00,WeatherDisplay:10.37,2013-08-19 13:26:00,
2013-08-19 09:31:00,64.0,64.0,30.11,NE,45,0.0,0.0,100,0.00,OVC,,0.00,WeatherDisplay:10.37,2013-08-19 13:31:00,
2013-08-19 09:36:00,64.6,64.6,30.11,SSE,147,3.5,3.5,100,0.00,OVC,,0.00,WeatherDisplay:10.37,2013-08-19 13:36:00,
2013-08-19 09:42:00,64.7,64.7,30.11,SSE,165,0.0,0.0,100,0.00,OVC,,0.00,WeatherDisplay:10.37,2013-08-19 13:42:00,
2013-08-19 09:47:00,64.4,64.4,30.11,SSE,165,0.0,0.0,100,0.00,OVC,,0.00,WeatherDisplay:10.37,2013-08-19 13:47:00,
2013-08-19 09:52:00,64.2,64.2,30.11,SSE,165,0.0,0.0,100,0.00,OVC,,0.00,WeatherDisplay:10.37,2013-08-19 13:52:00,
2013-08-19 09:57:00,64.3,64.3,30.11,SSW,213,4.8,4.8,100,0.00,OVC,,0.00,WeatherDisplay:10.37,2013-08-19 13:57:00,
2013-08-19 10:02:00,64.2,64.2,30.11,SSE,168,3.5,4.2,100,0.00,BKN,,0.00,WeatherDisplay:10.37,2013-08-19 14:02:00,
2013-08-19 10:07:00,64.4,64.4,30.11,SE,131,1.1,0.0,100,0.00,BKN,,0.00,WeatherDisplay:10.37,2013-08-19 14:07:00,
2013-08-19 10:12:00,64.2,64.2,30.11,South,172,1.1,1.1,100,0.00,BKN,,0.00,WeatherDisplay:10.37,2013-08-19 14:12:00,
2013-08-19 10:17:00,64.3,64.3,30.11,SW,229,3.5,3.5,100,0.00,BKN,,0.00,WeatherDisplay:10.37,2013-08-19 14:17:00,
2013-08-19 10:22:00,64.4,64.4,30.11,SSW,196,0.0,0.0,100,0.00,BKN,,0.00,WeatherDisplay:10.37,2013-08-19 14:22:00,
2013-08-19 10:27:00,64.2,64.2,30.11,SSW,203,3.5,3.5,100,0.00,BKN,,0.00,WeatherDisplay:10.37,2013-08-19 14:27:00,
2013-08-19 10:32:00,64.4,64.4,30.11,SSW,196,0.0,0.0,100,0.00,BKN,,0.00,WeatherDisplay:10.37,2013-08-19 14:32:00,
2013-08-19 10:37:00,64.7,64.7,30.10,SSW,196,0.0,0.0,100,0.00,BKN,,0.00,WeatherDisplay:10.37,2013-08-19 14:37:00,
2013-08-19 10:42:00,64.7,64.7,30.11,SSW,196,0.0,0.0,100,0.00,BKN,,0.00,WeatherDisplay:10.37,2013-08-19 14:42:00,
2013-08-19 10:47:00,64.6,64.6,30.10,SSW,196,0.0,0.0,100,0.00,BKN,,0.00,WeatherDisplay:10.37,2013-08-19 14:47:00,
2013-08-19 10:52:00,64.9,64.9,30.10,SSW,196,0.0,0.0,100,0.00,BKN,,0.00,WeatherDisplay:10.37,2013-08-19 14:52:00,
2013-08-19 10:57:00,64.9,64.9,30.10,SSW,196,0.0,0.0,100,0.00,BKN,,0.00,WeatherDisplay:10.37,2013-08-19 14:57:00,
2013-08-19 11:02:00,65.1,65.1,30.10,SSW,196,0.0,0.0,100,0.00,BKN,,0.00,WeatherDisplay:10.37,2013-08-19 15:02:00,
2013-08-19 11:07:00,65.5,65.5,30.10,SW,217,0.0,0.0,100,0.00,BKN,,0.00,WeatherDisplay:10.37,2013-08-19 15:07:00,
2013-08-19 11:12:00,65.5,65.5,30.11,SW,217,0.0,0.0,100,0.00,BKN,,0.00,WeatherDisplay:10.37,2013-08-19 15:12:00,
2013-08-19 11:17:00,65.6,65.6,30.11,SW,224,0.0,0.0,100,0.00,BKN,,0.00,WeatherDisplay:10.37,2013-08-19 15:17:00,
2013-08-19 11:22:00,65.6,65.6,30.11,SW,224,0.0,0.0,100,0.00,BKN,,0.00,WeatherDisplay:10.37,2013-08-19 15:22:00,
2013-08-19 11:27:00,65.9,65.9,30.11,SW,224,0.0,0.0,100,0.00,BKN,,0.00,WeatherDisplay:10.37,2013-08-19 15:27:00,
2013-08-19 11:32:00,66.0,66.0,30.11,SW,224,0.0,0.0,100,0.00,BKN,,0.00,WeatherDisplay:10.37,2013-08-19 15:32:00,
2013-08-19 11:37:00,66.2,66.2,30.10,SW,224,0.0,0.0,100,0.00,BKN,,0.00,WeatherDisplay:10.37,2013-08-19 15:37:00,
2013-08-19 11:42:00,66.4,66.4,30.10,SW,224,0.0,0.0,100,0.00,BKN,,0.00,WeatherDisplay:10.37,2013-08-19 15:42:00,
2013-08-19 11:47:00,66.7,66.7,30.10,SW,224,0.0,0.0,100,0.00,BKN,,0.00,WeatherDisplay:10.37,2013-08-19 15:47:00,
2013-08-19 11:52:00,66.8,66.8,30.10,SW,224,0.0,0.0,100,0.00,BKN,,0.00,WeatherDisplay:10.37,2013-08-19 15:52:00,
2013-08-19 11:57:00,66.9,66.9,30.10,SW,224,0.0,0.0,100,0.00,BKN,,0.00,WeatherDisplay:10.37,2013-08-19 15:57:00,
2013-08-19 12:02:00,67.1,67.1,30.11,SW,224,0.0,0.0,100,0.00,BKN,,0.00,WeatherDisplay:10.37,2013-08-19 16:02:00,
2013-08-19 12:07:00,67.0,67.0,30.10,SW,224,0.0,0.0,100,0.00,BKN,,0.00,WeatherDisplay:10.37,2013-08-19 16:07:00,
2013-08-19 12:12:00,67.0,67.0,30.10,SW,224,0.0,0.0,100,0.00,BKN,,0.00,WeatherDisplay:10.37,2013-08-19 16:12:00,
2013-08-19 12:17:00,67.0,67.0,30.10,SW,224,0.0,0.0,100,0.00,BKN,,0.00,WeatherDisplay:10.37,2013-08-19 16:17:00,
2013-08-19 12:22:00,67.1,67.1,30.10,SW,224,0.0,0.0,100,0.00,BKN,,0.00,WeatherDisplay:10.37,2013-08-19 16:22:00,
2013-08-19 12:27:00,67.0,67.0,30.10,SW,224,0.0,0.0,100,0.00,BKN,,0.00,WeatherDisplay:10.37,2013-08-19 16:27:00,
2013-08-19 12:32:00,67.1,67.1,30.10,SW,224,0.0,0.0,100,0.00,BKN,,0.00,WeatherDisplay:10.37,2013-08-19 16:32:00,
2013-08-19 12:37:00,67.7,67.7,30.10,SW,224,0.0,0.0,100,0.00,BKN,,0.00,WeatherDisplay:10.37,2013-08-19 16:37:00,
2013-08-19 12:42:00,67.9,67.9,30.08,SW,224,0.0,0.0,100,0.00,BKN,,0.00,WeatherDisplay:10.37,2013-08-19 16:42:00,
2013-08-19 12:47:00,68.0,68.0,30.09,SW,224,0.0,0.0,100,0.00,BKN,,0.00,WeatherDisplay:10.37,2013-08-19 16:47:00,
2013-08-19 12:52:00,68.1,68.1,30.09,SW,224,0.0,0.0,100,0.00,BKN,,0.00,WeatherDisplay:10.37,2013-08-19 16:52:00,
2013-08-19 12:57:00,68.1,68.1,30.09,SW,224,0.0,0.0,100,0.00,BKN,,0.00,WeatherDisplay:10.37,2013-08-19 16:57:00,
2013-08-19 13:02:00,68.1,68.1,30.09,SW,224,0.0,0.0,100,0.00,OVC,,0.00,WeatherDisplay:10.37,2013-08-19 17:02:00,
2013-08-19 13:07:00,68.1,68.1,30.08,SW,224,0.0,0.0,100,0.00,OVC,,0.00,WeatherDisplay:10.37,2013-08-19 17:07:00,
2013-08-19 13:12:00,67.9,67.9,30.08,SW,224,0.0,0.0,100,0.00,OVC,,0.00,WeatherDisplay:10.37,2013-08-19 17:12:00,
2013-08-19 13:17:00,68.0,68.0,30.08,SW,224,0.0,0.0,100,0.00,OVC,,0.00,WeatherDisplay:10.37,2013-08-19 17:17:00,
2013-08-19 13:22:00,68.2,68.2,30.08,SW,233,2.9,2.9,100,0.00,OVC,,0.00,WeatherDisplay:10.37,2013-08-19 17:22:00,
2013-08-19 13:27:00,68.1,68.1,30.08,West,271,3.5,3.5,100,0.00,OVC,,0.00,WeatherDisplay:10.37,2013-08-19 17:27:00,
2013-08-19 13:32:00,68.4,68.4,30.07,WSW,243,3.5,3.5,100,0.00,OVC,,0.00,WeatherDisplay:10.37,2013-08-19 17:32:00,
2013-08-19 13:37:00,68.6,68.6,30.07,SSW,205,6.9,6.9,100,0.00,OVC,,0.00,WeatherDisplay:10.37,2013-08-19 17:37:00,
2013-08-19 13:42:00,69.1,69.1,30.07,SW,215,8.1,8.1,100,0.00,OVC,,0.00,WeatherDisplay:10.37,2013-08-19 17:42:00,
2013-08-19 13:47:00,69.3,69.3,30.06,SSW,208,5.8,5.8,100,0.00,OVC,,0.00,WeatherDisplay:10.37,2013-08-19 17:47:00,
2013-08-19 13:52:00,69.5,69.5,30.07,SW,229,6.9,6.9,100,0.00,OVC,,0.00,WeatherDisplay:10.37,2013-08-19 17:52:00,
2013-08-19 13:57:00,69.9,69.9,30.07,SW,232,5.8,5.8,100,0.00,OVC,,0.00,WeatherDisplay:10.37,2013-08-19 17:57:00,
2013-08-19 14:02:00,70.5,70.5,30.07,WNW,302,2.2,2.2,100,0.00,SCT,,0.00,WeatherDisplay:10.37,2013-08-19 18:02:00,
2013-08-19 14:07:00,70.8,70.8,30.07,WNW,296,6.9,6.9,100,0.00,SCT,,0.00,WeatherDisplay:10.37,2013-08-19 18:07:00,
2013-08-19 14:12:00,71.0,71.0,30.07,WNW,296,0.0,0.0,100,0.00,SCT,,0.00,WeatherDisplay:10.37,2013-08-19 18:12:00,
2013-08-19 14:17:00,71.1,71.1,30.07,WNW,296,0.0,0.0,100,0.00,SCT,,0.00,WeatherDisplay:10.37,2013-08-19 18:17:00,
2013-08-19 14:22:00,71.0,71.0,30.07,WNW,296,0.0,0.0,100,0.00,SCT,,0.00,WeatherDisplay:10.37,2013-08-19 18:22:00,
2013-08-19 14:27:00,71.2,71.2,30.07,WNW,296,0.0,0.0,100,0.00,SCT,,0.00,WeatherDisplay:10.37,2013-08-19 18:27:00,
2013-08-19 14:32:00,71.3,71.3,30.07,WNW,296,0.0,0.0,100,0.00,SCT,,0.00,WeatherDisplay:10.37,2013-08-19 18:32:00,
2013-08-19 14:37:00,71.4,71.4,30.07,WNW,296,0.0,0.0,100,0.00,SCT,,0.00,WeatherDisplay:10.37,2013-08-19 18:37:00,
2013-08-19 14:42:00,71.3,71.3,30.07,WNW,296,0.0,0.0,100,0.00,SCT,,0.00,WeatherDisplay:10.37,2013-08-19 18:42:00,
2013-08-19 14:47:00,71.1,71.1,30.07,WNW,296,0.0,0.0,100,0.00,SCT,,0.00,WeatherDisplay:10.37,2013-08-19 18:47:00,
2013-08-19 14:52:00,70.6,70.6,30.07,NNW,342,7.8,7.8,100,0.00,SCT,,0.00,WeatherDisplay:10.37,2013-08-19 18:52:00,
2013-08-19 14:57:00,70.5,70.5,30.06,NNE,23,5.5,5.5,100,0.00,SCT,,0.00,WeatherDisplay:10.37,2013-08-19 18:57:00,
2013-08-19 15:02:00,70.8,70.8,30.06,NW,320,0.0,0.0,100,0.00,BKN,,0.00,WeatherDisplay:10.37,2013-08-19 19:02:00,
2013-08-19 15:07:00,70.8,70.8,30.06,SW,229,4.6,4.6,100,0.00,BKN,,0.00,WeatherDisplay:10.37,2013-08-19 19:07:00,
2013-08-19 15:12:00,70.7,70.7,30.06,SW,217,3.5,3.5,100,0.00,BKN,,0.00,WeatherDisplay:10.37,2013-08-19 19:12:00,
2013-08-19 15:17:00,71.1,71.1,30.06,South,179,0.0,0.0,100,0.00,BKN,,0.00,WeatherDisplay:10.37,2013-08-19 19:17:00,
2013-08-19 15:22:00,71.3,71.3,30.06,South,179,0.0,0.0,100,0.00,BKN,,0.00,WeatherDisplay:10.37,2013-08-19 19:22:00,
2013-08-19 15:27:00,71.5,71.5,30.06,SW,222,3.5,3.5,100,0.00,BKN,,0.00,WeatherDisplay:10.37,2013-08-19 19:27:00,
2013-08-19 15:32:00,71.9,71.9,30.05,WSW,239,4.6,4.6,100,0.00,BKN,,0.00,WeatherDisplay:10.37,2013-08-19 19:32:00,
2013-08-19 15:37:00,72.6,72.6,30.05,SW,224,2.6,2.6,100,0.00,BKN,,0.00,WeatherDisplay:10.37,2013-08-19 19:37:00,
2013-08-19 15:42:00,73.2,73.2,30.05,SSE,158,0.0,0.0,100,0.00,BKN,,0.00,WeatherDisplay:10.37,2013-08-19 19:42:00,
2013-08-19 15:47:00,73.4,73.4,30.05,South,176,3.8,3.8,100,0.00,BKN,,0.00,WeatherDisplay:10.37,2013-08-19 19:47:00,
2013-08-19 15:52:00,73.1,73.1,30.05,SSW,203,3.5,3.5,100,0.00,BKN,,0.00,WeatherDisplay:10.37,2013-08-19 19:52:00,
2013-08-19 15:57:00,72.9,72.9,30.05,SSW,203,0.0,0.0,100,0.00,BKN,,0.00,WeatherDisplay:10.37,2013-08-19 19:57:00,
2013-08-19 16:02:00,73.0,73.0,30.05,SSE,165,1.1,1.1,100,0.00,BKN,,0.00,WeatherDisplay:10.37,2013-08-19 20:02:00,
2013-08-19 16:07:00,73.4,73.4,30.05,SE,131,4.1,4.1,100,0.00,BKN,,0.00,WeatherDisplay:10.37,2013-08-19 20:07:00,
2013-08-19 16:12:00,73.4,73.4,30.05,South,171,0.0,0.0,100,0.00,BKN,,0.00,WeatherDisplay:10.37,2013-08-19 20:12:00,
2013-08-19 16:17:00,73.5,73.5,30.05,South,171,0.0,0.0,100,0.00,BKN,,0.00,WeatherDisplay:10.37,2013-08-19 20:17:00,
2013-08-19 16:22:00,73.4,73.4,30.05,South,189,0.0,0.0,100,0.00,BKN,,0.00,WeatherDisplay:10.37,2013-08-19 20:22:00,
2013-08-19 16:27:00,73.4,73.4,30.05,South,189,0.0,0.0,100,0.00,BKN,,0.00,WeatherDisplay:10.37,2013-08-19 20:27:00,
2013-08-19 16:32:00,73.2,73.2,30.05,South,189,0.0,0.0,100,0.00,BKN,,0.00,WeatherDisplay:10.37,2013-08-19 20:32:00,
2013-08-19 16:37:00,73.0,73.0,30.05,South,189,0.0,0.0,100,0.00,BKN,,0.00,WeatherDisplay:10.37,2013-08-19 20:37:00,
2013-08-19 16:42:00,72.7,72.7,30.05,South,189,0.0,0.0,100,0.00,BKN,,0.00,WeatherDisplay:10.37,2013-08-19 20:42:00,
2013-08-19 16:47:00,72.8,72.8,30.05,South,189,0.0,0.0,100,0.00,BKN,,0.00,WeatherDisplay:10.37,2013-08-19 20:47:00,
2013-08-19 16:52:00,72.8,72.8,30.05,South,189,0.0,0.0,100,0.00,BKN,,0.00,WeatherDisplay:10.37,2013-08-19 20:52:00,
2013-08-19 16:57:00,72.8,72.8,30.05,ENE,61,0.0,0.0,100,0.00,BKN,,0.00,WeatherDisplay:10.37,2013-08-19 20:57:00,
2013-08-19 17:02:00,72.7,72.7,30.05,ESE,102,3.5,3.5,100,0.00,BKN,,0.00,WeatherDisplay:10.37,2013-08-19 21:02:00,
2013-08-19 17:07:00,72.6,72.6,30.05,ENE,76,3.5,3.5,100,0.00,BKN,,0.00,WeatherDisplay:10.37,2013-08-19 21:07:00,
2013-08-19 17:12:00,72.5,72.5,30.04,NE,52,3.5,3.5,100,0.00,BKN,,0.00,WeatherDisplay:10.37,2013-08-19 21:12:00,
2013-08-19 17:17:00,72.7,72.7,30.04,NNE,32,3.5,3.5,100,0.00,BKN,,0.00,WeatherDisplay:10.37,2013-08-19 21:17:00,
2013-08-19 17:22:00,72.7,72.7,30.04,East,83,4.6,4.6,100,0.00,BKN,,0.00,WeatherDisplay:10.37,2013-08-19 21:22:00,
2013-08-19 17:27:00,72.9,72.9,30.04,NE,47,4.3,4.3,100,0.00,BKN,,0.00,WeatherDisplay:10.37,2013-08-19 21:27:00,
2013-08-19 17:32:00,72.5,72.5,30.04,NNE,18,1.1,0.0,100,0.00,BKN,,0.00,WeatherDisplay:10.37,2013-08-19 21:32:00,
2013-08-19 17:37:00,72.8,72.8,30.04,NNE,18,0.0,0.0,100,0.00,BKN,,0.00,WeatherDisplay:10.37,2013-08-19 21:37:00,
2013-08-19 17:42:00,73.2,73.2,30.04,SSW,210,3.4,3.4,100,0.00,BKN,,0.00,WeatherDisplay:10.37,2013-08-19 21:42:00,
2013-08-19 17:47:00,73.0,73.0,30.05,ESE,123,4.6,4.6,100,0.00,BKN,,0.00,WeatherDisplay:10.37,2013-08-19 21:47:00,
2013-08-19 17:52:00,73.3,73.3,30.04,SE,127,0.0,0.0,100,0.00,BKN,,0.00,WeatherDisplay:10.37,2013-08-19 21:52:00,
2013-08-19 17:57:00,73.1,73.1,30.05,SE,127,0.0,0.0,100,0.00,BKN,,0.00,WeatherDisplay:10.37,2013-08-19 21:57:00,
2013-08-19 18:02:00,73.0,73.0,30.05,SE,127,0.0,0.0,100,0.00,BKN,,0.00,WeatherDisplay:10.37,2013-08-19 22:02:00,
2013-08-19 18:07:00,73.2,73.2,30.04,SE,127,0.0,0.0,100,0.00,BKN,,0.00,WeatherDisplay:10.37,2013-08-19 22:07:00,
2013-08-19 18:12:00,73.1,73.1,30.04,SE,127,0.0,0.0,100,0.00,BKN,,0.00,WeatherDisplay:10.37,2013-08-19 22:12:00,
2013-08-19 18:18:00,72.9,72.9,30.04,SE,127,0.0,0.0,100,0.00,BKN,,0.00,WeatherDisplay:10.37,2013-08-19 22:18:00,
2013-08-19 18:23:00,72.6,72.6,30.04,SE,127,0.0,0.0,100,0.00,BKN,,0.00,WeatherDisplay:10.37,2013-08-19 22:23:00,
2013-08-19 18:28:00,72.5,72.5,30.04,SE,127,0.0,0.0,100,0.00,BKN,,0.00,WeatherDisplay:10.37,2013-08-19 22:28:00,
2013-08-19 18:33:00,72.8,72.8,30.04,SE,127,0.0,0.0,100,0.00,BKN,,0.00,WeatherDisplay:10.37,2013-08-19 22:33:00,
2013-08-19 18:38:00,72.9,72.9,30.04,SE,127,0.0,0.0,100,0.00,BKN,,0.00,WeatherDisplay:10.37,2013-08-19 22:38:00,
2013-08-19 18:43:00,73.2,73.2,30.05,SE,127,0.0,0.0,100,0.00,BKN,,0.00,WeatherDisplay:10.37,2013-08-19 22:43:00,
2013-08-19 18:48:00,73.2,73.2,30.04,SE,127,0.0,0.0,100,0.00,BKN,,0.00,WeatherDisplay:10.37,2013-08-19 22:48:00,
2013-08-19 18:53:00,73.2,73.2,30.04,East,93,2.3,0.0,100,0.00,BKN,,0.00,WeatherDisplay:10.37,2013-08-19 22:53:00,
2013-08-19 18:58:00,73.2,73.2,30.04,East,93,0.0,0.0,100,0.00,BKN,,0.00,WeatherDisplay:10.37,2013-08-19 22:58:00,
2013-08-19 19:03:00,73.1,73.1,30.04,East,93,0.0,0.0,100,0.00,BKN,,0.00,WeatherDisplay:10.37,2013-08-19 23:03:00,
2013-08-19 19:08:00,72.7,72.7,30.04,East,93,0.0,0.0,100,0.00,BKN,,0.00,WeatherDisplay:10.37,2013-08-19 23:08:00,
2013-08-19 19:13:00,72.1,72.1,30.04,East,93,0.0,0.0,100,0.00,BKN,,0.00,WeatherDisplay:10.37,2013-08-19 23:13:00,
2013-08-19 19:18:00,71.7,71.7,30.04,East,93,0.0,0.0,100,0.00,BKN,,0.00,WeatherDisplay:10.37,2013-08-19 23:18:00,
2013-08-19 19:23:00,71.3,71.3,30.04,East,93,0.0,0.0,100,0.00,BKN,,0.00,WeatherDisplay:10.37,2013-08-19 23:23:00,
2013-08-19 19:28:00,70.8,70.8,30.04,East,93,0.0,0.0,100,0.00,BKN,,0.00,WeatherDisplay:10.37,2013-08-19 23:28:00,
2013-08-19 19:33:00,70.5,70.5,30.04,East,93,0.0,0.0,100,0.00,BKN,,0.00,WeatherDisplay:10.37,2013-08-19 23:33:00,
2013-08-19 19:38:00,70.3,70.3,30.04,East,93,0.0,0.0,100,0.00,BKN,,0.00,WeatherDisplay:10.37,2013-08-19 23:38:00,
2013-08-19 19:43:00,70.0,70.0,30.04,East,93,0.0,0.0,100,0.00,BKN,,0.00,WeatherDisplay:10.37,2013-08-19 23:43:00,
2013-08-19 19:48:00,69.8,69.8,30.04,East,93,0.0,0.0,100,0.00,BKN,,0.00,WeatherDisplay:10.37,2013-08-19 23:48:00,
2013-08-19 19:53:00,69.5,69.5,30.04,East,93,0.0,0.0,100,0.00,BKN,,0.00,WeatherDisplay:10.37,2013-08-19 23:53:00,
2013-08-19 19:58:00,69.2,69.2,30.04,East,93,0.0,0.0,100,0.00,BKN,,0.00,WeatherDisplay:10.37,2013-08-19 23:58:00,
2013-08-19 20:03:00,68.9,68.9,30.04,East,93,0.0,0.0,100,0.00,BKN,,0.00,WeatherDisplay:10.37,2013-08-20 00:03:00,
2013-08-19 20:08:00,68.5,68.5,30.04,North,8,0.0,0.0,100,0.00,BKN,,0.00,WeatherDisplay:10.37,2013-08-20 00:08:00,
2013-08-19 20:13:00,68.4,68.4,30.04,North,8,0.0,0.0,100,0.00,SCT,,0.00,WeatherDisplay:10.37,2013-08-20 00:13:00,
2013-08-19 20:18:00,68.2,68.2,30.05,North,8,0.0,0.0,100,0.00,SCT,,0.00,WeatherDisplay:10.37,2013-08-20 00:18:00,
2013-08-19 20:23:00,68.0,68.0,30.05,NNE,13,0.0,0.0,100,0.00,SCT,,0.00,WeatherDisplay:10.37,2013-08-20 00:23:00,
2013-08-19 20:28:00,67.4,67.4,30.05,NNE,13,0.0,0.0,100,0.00,SCT,,0.00,WeatherDisplay:10.37,2013-08-20 00:28:00,
2013-08-19 20:33:00,67.7,67.7,30.05,NNE,13,0.0,0.0,100,0.00,SCT,,0.00,WeatherDisplay:10.37,2013-08-20 00:33:00,
2013-08-19 20:38:00,67.4,67.4,30.05,NNE,13,0.0,0.0,100,0.00,SCT,,0.00,WeatherDisplay:10.37,2013-08-20 00:38:00,
2013-08-19 20:43:00,67.3,67.3,30.05,NNW,340,0.0,0.0,100,0.00,SCT,,0.00,WeatherDisplay:10.37,2013-08-20 00:43:00,
2013-08-19 20:48:00,66.9,66.9,30.05,NE,52,3.5,3.5,100,0.00,SCT,,0.00,WeatherDisplay:10.37,2013-08-20 00:48:00,
2013-08-19 20:53:00,67.0,67.0,30.06,NE,40,2.4,2.4,100,0.00,SCT,,0.00,WeatherDisplay:10.37,2013-08-20 00:53:00,
2013-08-19 20:58:00,66.9,66.9,30.06,NNE,14,2.3,2.3,100,0.00,SCT,,0.00,WeatherDisplay:10.37,2013-08-20 00:58:00,
2013-08-19 21:03:00,66.9,66.9,30.06,ENE,64,2.0,2.0,100,0.00,SCT,,0.00,WeatherDisplay:10.37,2013-08-20 01:03:00,
2013-08-19 21:08:00,66.8,66.8,30.06,NNE,20,0.8,0.8,100,0.00,SCT,,0.00,WeatherDisplay:10.37,2013-08-20 01:08:00,
2013-08-19 21:13:00,66.7,66.7,30.06,NNE,25,2.3,2.3,100,0.00,CLR,,0.00,WeatherDisplay:10.37,2013-08-20 01:13:00,
2013-08-19 21:18:00,66.5,66.5,30.06,NNE,13,2.3,2.3,100,0.00,CLR,,0.00,WeatherDisplay:10.37,2013-08-20 01:18:00,
2013-08-19 21:23:00,66.4,66.4,30.07,NE,40,4.6,4.6,100,0.00,CLR,,0.00,WeatherDisplay:10.37,2013-08-20 01:23:00,
2013-08-19 21:28:00,66.3,66.3,30.07,North,360,5.0,5.0,100,0.00,CLR,,0.00,WeatherDisplay:10.37,2013-08-20 01:28:00,
2013-08-19 21:33:00,66.2,66.2,30.07,North,7,1.4,1.4,100,0.00,CLR,,0.00,WeatherDisplay:10.37,2013-08-20 01:33:00,
2013-08-19 21:38:00,66.2,66.2,30.07,NNE,27,3.5,3.5,100,0.00,CLR,,0.00,WeatherDisplay:10.37,2013-08-20 01:38:00,
2013-08-19 21:43:00,66.0,66.0,30.07,NNW,346,2.3,2.3,100,0.00,CLR,,0.00,WeatherDisplay:10.37,2013-08-20 01:43:00,
2013-08-19 21:48:00,66.1,66.1,30.07,NE,45,0.0,0.0,100,0.00,CLR,,0.00,WeatherDisplay:10.37,2013-08-20 01:48:00,
2013-08-19 21:53:00,66.1,66.1,30.07,NE,45,0.0,0.0,100,0.00,CLR,,0.00,WeatherDisplay:10.37,2013-08-20 01:53:00,
2013-08-19 21:58:00,66.1,66.1,30.07,NE,45,0.0,0.0,100,0.00,CLR,,0.00,WeatherDisplay:10.37,2013-08-20 01:58:00,
2013-08-19 22:03:00,66.0,66.0,30.07,NE,45,0.0,0.0,100,0.00,CLR,,0.00,WeatherDisplay:10.37,2013-08-20 02:03:00,
2013-08-19 22:08:00,66.0,66.0,30.07,NE,45,0.0,0.0,100,0.00,CLR,,0.00,WeatherDisplay:10.37,2013-08-20 02:08:00,
2013-08-19 22:13:00,66.0,66.0,30.07,NE,45,0.0,0.0,100,0.00,CLR,,0.00,WeatherDisplay:10.37,2013-08-20 02:13:00,
2013-08-19 22:18:00,66.0,66.0,30.07,NE,45,0.0,0.0,100,0.00,CLR,,0.00,WeatherDisplay:10.37,2013-08-20 02:18:00,
2013-08-19 22:23:00,66.0,66.0,30.07,NE,45,0.0,0.0,100,0.00,CLR,,0.00,WeatherDisplay:10.37,2013-08-20 02:23:00,
2013-08-19 22:28:00,65.8,65.8,30.07,NE,45,0.0,0.0,100,0.00,CLR,,0.00,WeatherDisplay:10.37,2013-08-20 02:28:00,
2013-08-19 22:33:00,65.9,65.9,30.07,NE,45,0.0,0.0,100,0.00,CLR,,0.00,WeatherDisplay:10.37,2013-08-20 02:33:00,
2013-08-19 22:38:00,66.0,66.0,30.07,NE,45,0.0,0.0,100,0.00,CLR,,0.00,WeatherDisplay:10.37,2013-08-20 02:38:00,
2013-08-19 22:43:00,65.8,65.8,30.07,NE,45,0.0,0.0,100,0.00,CLR,,0.00,WeatherDisplay:10.37,2013-08-20 02:43:00,
2013-08-19 22:48:00,65.6,65.6,30.07,NE,45,0.0,0.0,100,0.00,CLR,,0.00,WeatherDisplay:10.37,2013-08-20 02:48:00,
2013-08-19 22:53:00,65.4,65.4,30.07,NE,45,0.0,0.0,100,0.00,CLR,,0.00,WeatherDisplay:10.37,2013-08-20 02:53:00,
2013-08-19 22:58:00,65.3,65.3,30.08,NNE,24,3.5,3.5,100,0.00,CLR,,0.00,WeatherDisplay:10.37,2013-08-20 02:58:00,
2013-08-19 23:03:00,65.4,65.4,30.08,ENE,66,2.3,2.3,100,0.00,CLR,,0.00,WeatherDisplay:10.37,2013-08-20 03:03:00,
2013-08-19 23:08:00,65.6,65.6,30.08,NE,45,2.3,2.3,100,0.00,CLR,,0.00,WeatherDisplay:10.37,2013-08-20 03:08:00,
2013-08-19 23:13:00,65.5,65.5,30.08,North,6,0.0,0.0,100,0.00,CLR,,0.00,WeatherDisplay:10.37,2013-08-20 03:13:00,
2013-08-19 23:18:00,65.5,65.5,30.08,NNE,13,2.3,0.0,100,0.00,CLR,,0.00,WeatherDisplay:10.37,2013-08-20 03:18:00,
2013-08-19 23:23:00,65.4,65.4,30.08,NNE,13,0.0,0.0,100,0.00,CLR,,0.00,WeatherDisplay:10.37,2013-08-20 03:23:00,
2013-08-19 23:28:00,65.3,65.3,30.08,North,360,3.5,3.5,100,0.00,CLR,,0.00,WeatherDisplay:10.37,2013-08-20 03:28:00,
2013-08-19 23:33:00,65.1,65.1,30.07,North,1,0.0,0.0,100,0.00,CLR,,0.00,WeatherDisplay:10.37,2013-08-20 03:33:00,
2013-08-19 23:38:00,65.1,65.1,30.07,NNE,30,2.3,2.3,100,0.00,CLR,,0.00,WeatherDisplay:10.37,2013-08-20 03:38:00,
2013-08-19 23:43:00,65.1,65.1,30.07,NNE,13,2.3,2.3,100,0.00,CLR,,0.00,WeatherDisplay:10.37,2013-08-20 03:43:00,
2013-08-19 23:48:00,65.1,65.1,30.08,North,354,0.0,0.0,100,0.00,CLR,,0.00,WeatherDisplay:10.37,2013-08-20 03:48:00,
2013-08-19 23:53:00,65.1,65.1,30.08,North,354,0.0,0.0,100,0.00,CLR,,0.00,WeatherDisplay:10.37,2013-08-20 03:53:00,
2013-08-19 23:58:00,65.2,65.2,30.08,North,354,0.0,0.0,100,0.00,CLR,,0.00,WeatherDisplay:10.37,2013-08-20 03:58:00,